Weather History for KJVW - February, 2014

Change the Weather History Date:

Friday, February 14, 2014

  Actual Average Record
Temperature  
Mean Temperature 46 °F -  
Max Temperature 62 °F - - ()
Min Temperature 30 °F - - ()
Degree Days  
Heating Degree Days 19    
Moisture  
Dew Point 42 °F    
Average Humidity 82    
Maximum Humidity 100    
Minimum Humidity 59    
Precipitation  
Precipitation 0.08 in - - ()
Sea Level Pressure  
Sea Level Pressure 29.90 in    
Wind  
Wind Speed 5 mph (SW)    
Max Wind Speed 15 mph    
Max Gust Speed 28 mph    
Visibility 9 miles    
Events Rain    
Averages and records for this station are not official NWS values.
T = Trace of Precipitation, MM = Missing Value Source: NWS Daily Summary

Daily Weather History Graph

Daily Weather History Graph

Search for Another Location

Airport or City:

Astronomy

Feb. 14, 2014 Rise Set
Actual Time 6:45 AM CST 5:46 PM CST
Civil Twilight 6:20 AM CST 6:12 PM CST
Nautical Twilight 5:51 AM CST 6:40 PM CST
Astronomical Twilight 5:22 AM CST 7:09 PM CST
Moon 5:47 PM CST (2/14) 6:14 AM CST (2/14)
Length of Visible Light 11h 51m
Length of Day
11h 01m
Full, 100% of the Moon is Illuminated
Feb 14
Full
Feb 14
Full
Feb 22
Last Quarter
Mar 1
New
Mar 8
First Quarter

Hourly Weather History & Observations

Time (CST) Temp. Windchill Dew Point Humidity Pressure Visibility Wind Dir Wind Speed Gust Speed Precip Events Conditions
12:15 AM 32.0 °F 28.7 °F 32.0 °F 100% 29.97 in 9.0 mi SW 3.5 mph - N/A   Clear
12:35 AM 32.0 °F - 32.0 °F 100% 29.97 in 10.0 mi Calm Calm - N/A   Clear
12:55 AM 32.0 °F - 32.0 °F 100% 29.98 in 10.0 mi Calm Calm - N/A   Clear
1:15 AM 30.2 °F - 30.2 °F 100% 29.97 in 8.0 mi Calm Calm - N/A   Clear
1:35 AM 32.0 °F - 32.0 °F 100% 29.97 in 6.0 mi Calm Calm - N/A   Clear
1:55 AM 30.2 °F - 30.2 °F 100% 29.96 in 7.0 mi Calm Calm - N/A   Clear
2:15 AM 30.2 °F - 30.2 °F 100% 29.96 in 8.0 mi Calm Calm - N/A   Clear
2:35 AM 30.2 °F - 30.2 °F 100% 29.95 in 7.0 mi Calm Calm - N/A   Clear
2:55 AM 30.2 °F - 30.2 °F 100% 29.94 in 6.0 mi Calm Calm - N/A   Clear
3:15 AM 30.2 °F - 30.2 °F 100% 29.94 in 10.0 mi Calm Calm - N/A   Clear
3:35 AM 32.0 °F - 32.0 °F 100% 29.93 in 10.0 mi Calm Calm - N/A   Clear
3:55 AM 32.0 °F - 32.0 °F 100% 29.93 in 10.0 mi Calm Calm - N/A   Clear
4:15 AM 35.6 °F 31.7 °F 33.8 °F 93% 29.93 in 10.0 mi SW 4.6 mph - N/A   Clear
4:35 AM 35.6 °F 29.9 °F 33.8 °F 93% 29.93 in 10.0 mi SSW 6.9 mph - N/A   Clear
4:55 AM 35.6 °F 30.7 °F 33.8 °F 93% 29.94 in 10.0 mi SW 5.8 mph - N/A   Clear
5:15 AM 35.6 °F 30.7 °F 33.8 °F 93% 29.95 in 10.0 mi SSW 5.8 mph - N/A   Clear
5:35 AM 37.4 °F 32.8 °F 35.6 °F 93% 29.94 in 10.0 mi SSW 5.8 mph - N/A   Clear
5:55 AM 37.4 °F 32.8 °F 35.6 °F 93% 29.93 in 10.0 mi SSW 5.8 mph - N/A   Clear
6:15 AM 37.4 °F - 35.6 °F 93% 29.94 in 10.0 mi Calm Calm - N/A   Clear
6:35 AM 37.4 °F - 35.6 °F 93% 29.93 in 10.0 mi Calm Calm - N/A   Clear
6:55 AM 33.8 °F - 32.0 °F 93% 29.93 in 9.0 mi Calm Calm - N/A   Clear
7:15 AM 32.0 °F 27.5 °F 32.0 °F 100% 29.92 in 2.5 mi East 4.6 mph - N/A   Clear
7:35 AM 35.6 °F - 35.6 °F 100% 29.92 in 5.0 mi Calm Calm - N/A   Clear
7:55 AM 39.2 °F - 39.2 °F 100% 29.93 in 9.0 mi Calm Calm - N/A   Clear
8:15 AM 41.0 °F 36.4 °F 39.2 °F 93% 29.93 in 10.0 mi SSW 6.9 mph - N/A   Clear
8:35 AM 42.8 °F 37.5 °F 41.0 °F 93% 29.94 in 10.0 mi SSW 9.2 mph - N/A   Clear
8:55 AM 44.6 °F 39.7 °F 42.8 °F 93% 29.93 in 10.0 mi SSW 9.2 mph - N/A   Clear
9:15 AM 46.4 °F 43.5 °F 44.6 °F 93% 29.92 in 10.0 mi SSW 5.8 mph - N/A   Clear
9:35 AM 48.2 °F - 44.6 °F 87% 29.93 in 10.0 mi SW 10.4 mph - N/A   Clear
9:55 AM 48.2 °F - 44.6 °F 87% 29.95 in 10.0 mi SW 6.9 mph - N/A   Clear
10:15 AM 50.0 °F - 44.6 °F 82% 29.94 in 10.0 mi SW 10.4 mph - N/A   Clear
10:35 AM 50.0 °F - 46.4 °F 87% 29.93 in 10.0 mi SSW 8.1 mph - N/A   Clear
10:55 AM 53.6 °F - 46.4 °F 77% 29.91 in 10.0 mi SSW 9.2 mph - N/A   Partly Cloudy
11:15 AM 55.4 °F - 46.4 °F 72% 29.90 in 10.0 mi SW 12.7 mph - N/A   Partly Cloudy
11:35 AM 55.4 °F - 48.2 °F 77% 29.89 in 10.0 mi SSW 11.5 mph - N/A   Mostly Cloudy
11:55 AM 57.2 °F - 48.2 °F 72% 29.88 in 10.0 mi SSW 12.7 mph 19.6 mph N/A   Overcast
12:15 PM 57.2 °F - 48.2 °F 72% 29.86 in 10.0 mi SSW 12.7 mph 19.6 mph N/A   Mostly Cloudy
12:35 PM 57.2 °F - 48.2 °F 72% 29.85 in 10.0 mi SSW 11.5 mph 21.9 mph N/A   Mostly Cloudy
12:55 PM 57.2 °F - 48.2 °F 72% 29.85 in 10.0 mi SW 12.7 mph 16.1 mph N/A   Overcast
1:15 PM 57.2 °F - 48.2 °F 72% 29.84 in 10.0 mi SW 6.9 mph 18.4 mph N/A   Overcast
1:35 PM 59.0 °F - 48.2 °F 67% 29.82 in 10.0 mi South 12.7 mph 21.9 mph N/A   Overcast
1:55 PM 59.0 °F - 48.2 °F 67% 29.81 in 10.0 mi South 6.9 mph - N/A   Mostly Cloudy
2:15 PM 59.0 °F - 48.2 °F 67% 29.81 in 10.0 mi SSW 8.1 mph - N/A   Mostly Cloudy
2:35 PM 60.8 °F - 48.2 °F 63% 29.79 in 10.0 mi SSW 9.2 mph 18.4 mph N/A   Mostly Cloudy
2:55 PM 62.6 °F - 48.2 °F 59% 29.78 in 10.0 mi SSW 8.1 mph - N/A   Mostly Cloudy
3:15 PM 62.6 °F - 48.2 °F 59% 29.78 in 10.0 mi SSW 13.8 mph 20.7 mph N/A   Mostly Cloudy
3:35 PM 62.6 °F - 48.2 °F 59% 29.78 in 10.0 mi SW 15.0 mph 24.2 mph N/A   Mostly Cloudy
3:55 PM 62.6 °F - 48.2 °F 59% 29.78 in 10.0 mi SW 13.8 mph 18.4 mph N/A   Mostly Cloudy
4:15 PM 62.6 °F - 48.2 °F 59% 29.78 in 10.0 mi SSW 11.5 mph 18.4 mph N/A   Scattered Clouds
4:35 PM 62.6 °F - 50.0 °F 63% 29.77 in 10.0 mi SSW 12.7 mph 16.1 mph N/A   Partly Cloudy
4:55 PM 60.8 °F - 50.0 °F 68% 29.77 in 10.0 mi SSW 8.1 mph - N/A   Scattered Clouds
5:15 PM 60.8 °F - 50.0 °F 68% 29.78 in 10.0 mi SW 9.2 mph - N/A   Mostly Cloudy
5:35 PM 60.8 °F - 50.0 °F 68% 29.79 in 10.0 mi SSW 11.5 mph - N/A   Mostly Cloudy
5:55 PM 60.8 °F - 50.0 °F 68% 29.80 in 10.0 mi West 9.2 mph - N/A   Scattered Clouds
6:15 PM 59.0 °F - 50.0 °F 72% 29.81 in 10.0 mi WSW 8.1 mph - N/A   Partly Cloudy
6:35 PM 59.0 °F - 51.8 °F 77% 29.81 in 10.0 mi West 6.9 mph - N/A   Clear
6:55 PM 57.2 °F - 50.0 °F 77% 29.85 in 2.5 mi NW 15.0 mph 27.6 mph 0.08 in Rain Heavy Rain
7:15 PM 55.4 °F - 53.6 °F 94% 29.85 in 10.0 mi NW 6.9 mph - N/A   Partly Cloudy
7:35 PM 55.4 °F - 50.0 °F 82% 29.85 in 10.0 mi NW 8.1 mph - N/A   Clear
7:55 PM 55.4 °F - 48.2 °F 77% 29.86 in 10.0 mi NNW 9.2 mph - N/A   Clear
8:15 PM 53.6 °F - 44.6 °F 72% 29.88 in 10.0 mi NW 6.9 mph - N/A   Clear
8:35 PM 53.6 °F - 42.8 °F 67% 29.90 in 10.0 mi NNW 6.9 mph - N/A   Clear
8:55 PM 51.8 °F - 41.0 °F 67% 29.91 in 10.0 mi NW 4.6 mph - N/A   Clear
9:15 PM 48.2 °F - 41.0 °F 76% 29.92 in 10.0 mi NW 3.5 mph - N/A   Clear
9:35 PM 48.2 °F - 44.6 °F 87% 29.93 in 10.0 mi Calm Calm - N/A   Clear
9:55 PM 44.6 °F 40.7 °F 44.6 °F 100% 29.94 in 10.0 mi NW 6.9 mph - N/A   Clear
10:15 PM 50.0 °F - 39.2 °F 66% 29.96 in 10.0 mi NW 9.2 mph - N/A   Clear
10:35 PM 50.0 °F - 37.4 °F 62% 29.97 in 10.0 mi NNW 8.1 mph 16.1 mph N/A   Clear
10:55 PM 50.0 °F - 37.4 °F 62% 29.98 in 10.0 mi North 8.1 mph - N/A   Clear
11:15 PM 48.2 °F - 35.6 °F 62% 29.99 in 10.0 mi NNW 9.2 mph 19.6 mph N/A   Clear
11:35 PM 48.2 °F - 37.4 °F 66% 30.00 in 10.0 mi NNW 11.5 mph 18.4 mph N/A   Clear
11:55 PM 46.4 °F 42.4 °F 37.4 °F 71% 30.01 in 10.0 mi North 8.1 mph - N/A   Clear